Torna al catalogo

STARLINK-35345

AttivoComunicazioniVLEO
NORAD 65833·PAYLOAD·🇺🇸 United States

Lanciato Sep 29, 2025 da Vandenberg Space Force Base

Loading…

Prossimi Passaggi (prossime 24 ore)

TLE

AggiornatoSource: CelesTrak SupGP

Epoca: Sep 14, 2026, 21:28 UTC

1 65833C 25221L   26257.89493056  .00037978  00000+0  11225-2 0  2576
2 65833  53.1573 286.0585 0001166  80.6176 155.3132 15.34359377    15

Traccia STARLINK-35345 in tempo reale con AllMySat

Download on the App Store